Cambridge, United Kingdom

5:36 AM BST on April 27, 2018 (GMT +0100)
Cambridge

Weather History for EGSC - October, 2012

Change the Weather History Date:

Wednesday, October 3, 2012

  Actual Average Record
Temperature  
Mean Temperature 54 °F -  
Max Temperature 60 °F 55 °F 80 °F (2011)
Min Temperature 48 °F 45 °F 37 °F (2016)
Degree Days  
Heating Degree Days 11    
Growing Degree Days 4 (Base 50)    
Moisture  
Dew Point 44 °F    
Average Humidity 70    
Maximum Humidity 87    
Minimum Humidity 48    
Precipitation  
Precipitation 0.00 in - - ()
Sea Level Pressure  
Sea Level Pressure 29.65 in    
Wind  
Wind Speed 11 mph ()    
Max Wind Speed 20 mph    
Max Gust Speed 31 mph    
Visibility 6.2 miles    
Events      
Averages and records for this station are not official NWS values.
T = Trace of Precipitation, MM = Missing Value Source: Averaged Metar Reports

Daily Weather History Graph

Daily Weather History Graph

Search for Another Location

Airport or City:

Astronomy

Oct. 03, 2012 Rise Set
Actual Time 7:04 AM BST 6:31 PM BST
Civil Twilight 6:30 AM BST 7:04 PM BST
Nautical Twilight 5:50 AM BST 7:44 PM BST
Astronomical Twilight 5:10 AM BST 8:24 PM BST
Moon 7:42 PM BST (10/3) 10:43 AM BST (10/3)
Length of Visible Light 12h 34m
Length of Day
11h 27m
Waning Gibbous, 90% of the Moon is Illuminated
Oct 3
Waning Gibbous
Oct 8
Last Quarter
Oct 15
New
Oct 22
First Quarter
Oct 29
Full

Hourly Weather History & Observations

Time (BST) Temp. Dew Point Humidity Pressure Visibility Wind Dir Wind Speed Gust Speed Precip Events Conditions
6:20 AM 50.0 °F 46.4 °F 87% 29.62 in 6.2 mi South 5.8 mph - N/A   Partly Cloudy
6:50 AM 50.0 °F 44.6 °F 82% 29.62 in 6.2 mi SSW 11.5 mph - N/A   Partly Cloudy
7:20 AM 48.2 °F 44.6 °F 87% 29.62 in 6.2 mi SSW 5.8 mph - N/A   Partly Cloudy
7:50 AM 50.0 °F 46.4 °F 87% 29.62 in 6.2 mi SSW 9.2 mph - N/A   Partly Cloudy
8:20 AM 51.8 °F 46.4 °F 82% 29.65 in 6.2 mi SSW 9.2 mph - N/A   Partly Cloudy
8:50 AM 51.8 °F 46.4 °F 82% 29.65 in - SSW 12.7 mph - N/A   Clear
9:20 AM 53.6 °F 48.2 °F 82% 29.65 in 6.2 mi SSW 13.8 mph - N/A   Partly Cloudy
9:50 AM 55.4 °F 46.4 °F 72% 29.65 in 6.2 mi SW 16.1 mph - N/A   Partly Cloudy
10:20 AM 53.6 °F 44.6 °F 72% 29.65 in 6.2 mi SW 19.6 mph - N/A   Partly Cloudy
10:50 AM 55.4 °F 44.6 °F 67% 29.68 in 6.2 mi SW 17.3 mph - N/A   Partly Cloudy
11:20 AM 55.4 °F 46.4 °F 72% 29.68 in 6.2 mi SSW 16.1 mph 27.6 mph N/A   Partly Cloudy
11:50 AM 57.2 °F 44.6 °F 63% 29.65 in 6.2 mi SW 17.3 mph - N/A   Partly Cloudy
12:20 PM 57.2 °F 42.8 °F 59% 29.65 in 6.2 mi SW 18.4 mph - N/A   Partly Cloudy
12:50 PM 57.2 °F 42.8 °F 59% 29.68 in 6.2 mi WSW 19.6 mph - N/A   Partly Cloudy
1:20 PM 59.0 °F 42.8 °F 55% 29.68 in 6.2 mi SW 17.3 mph - N/A   Scattered Clouds
1:50 PM 59.0 °F 42.8 °F 55% 29.65 in 6.2 mi SW 18.4 mph - N/A   Scattered Clouds
2:20 PM 59.0 °F 41.0 °F 51% 29.65 in 6.2 mi SW 17.3 mph - N/A   Scattered Clouds
2:50 PM 60.8 °F 42.8 °F 52% 29.65 in 6.2 mi SW 19.6 mph - N/A   Scattered Clouds
3:20 PM 59.0 °F 41.0 °F 51% 29.65 in 6.2 mi SW 15.0 mph - N/A   Scattered Clouds
3:50 PM 59.0 °F 39.2 °F 48% 29.65 in 6.2 mi SW 17.3 mph 31.1 mph N/A   Scattered Clouds
4:20 PM 53.6 °F 44.6 °F 72% 29.65 in 6.2 mi SW 19.6 mph - N/A   Scattered Clouds
5:20 PM 53.6 °F 44.6 °F 72% 29.65 in 6.2 mi SSW 12.7 mph - N/A   Partly Cloudy
5:50 PM 53.6 °F 42.8 °F 67% 29.65 in 6.2 mi SSW 9.2 mph - N/A   Partly Cloudy
6:20 PM 51.8 °F 42.8 °F 71% 29.65 in 6.2 mi SSW 8.1 mph - N/A   Partly Cloudy
6:50 PM 50.0 °F 42.8 °F 76% 29.65 in 6.2 mi SSW 12.7 mph - N/A   Partly Cloudy
7:20 PM 48.2 °F 42.8 °F 82% 29.65 in 6.2 mi SSW 4.6 mph - N/A   Scattered Clouds
7:50 PM 48.2 °F 44.6 °F 87% 29.65 in 6.2 mi South 5.8 mph - N/A   Partly Cloudy
8:20 PM 50.0 °F 44.6 °F 82% 29.65 in 6.2 mi South 9.2 mph - N/A   Partly Cloudy